Flag for Canada Weather past 2 weeks in Newmarket, Ontario, Canada

Now
37 °F

Overcast.


Feels Like: 32 °F
Forecast: 37 / 50 °F
Wind: 7 mph from Northwest

Location: Borden

Current Time: Apr 27, 2015 at 3:17:41 AM

Latest Report: Apr 27, 2015 at 2:55 AM


Visibility: 9 mi

Pressure: 29.81 "Hg

Humidity: 100%

Dew point: 37 °F

Location of NewmarketLocation

Historic Weather in Newmarket — Graph

°F

Newmarket temperature yesterday

Maximum temperature yesterday: 48 °F (at 4:00 PM)
Minimum temperature yesterday: 25 °F (at 3:00 AM)
Average temperature yesterday: 40 °F

Past Weeks' High & Low Weather Summary

 TemperatureHumidityPressure
High73 °F (Apr 13, 2:00 PM)100% (Apr 14, 2:00 AM)30.44 "Hg (Apr 14, 2:00 AM)
Low18 °F (Apr 25, 5:00 AM)18% (Apr 19, 7:00 PM)29.31 "Hg (Apr 20, 4:48 PM)
Average43 °F69%29.93 "Hg
* Reported Apr 12 2:00 AM — Apr 27 2:00 AM, Newmarket, Weather by CustomWeather, © 2015

Note: Actual official high and low records may vary slightly from our data, if they occured in-between our weather recording intervals... More about our weather records

Advertising

Newmarket weather history for previous 24 hours

 ConditionsComfort  
Time TempWeatherWind HumidityBarometerVisibility
2:00 AM
Mon, Apr 27
39 °FLight rain. Low clouds.6 mph93%29.84 "Hg9 mi
1:00 AM39 °FLight rain. Overcast.8 mph93%29.84 "Hg9 mi
12:00 AM43 °FOvercast.9 mph76%29.83 "Hg9 mi
11:00 PM
Sun, Apr 26
45 °FOvercast.10 mph66%29.83 "Hg9 mi
10:00 PM45 °FOvercast.9 mph66%29.84 "Hg9 mi
9:00 PM45 °FOvercast.7 mph61%29.85 "Hg9 mi
8:00 PM45 °FOvercast.7 mph61%29.85 "Hg9 mi
7:00 PM45 °FOvercast.10 mph61%29.86 "Hg9 mi
6:00 PM48 °FPassing clouds.13 mph54%29.86 "Hg9 mi
5:00 PM48 °FScattered clouds.15 mph54%29.87 "Hg9 mi
4:00 PM48 °FPassing clouds.10 mph58%29.87 "Hg9 mi
3:00 PM46 °FSunny.17 mph62%29.88 "Hg9 mi
2:00 PM46 °FPassing clouds.14 mph62%29.88 "Hg9 mi
1:00 PM46 °FPassing clouds.17 mph57%29.87 "Hg9 mi
12:00 PM46 °FScattered clouds.12 mph57%29.87 "Hg9 mi
11:00 AM46 °FPassing clouds.14 mph62%29.88 "Hg9 mi
10:00 AM45 °FScattered clouds.9 mph61%29.88 "Hg9 mi
9:00 AM43 °FPassing clouds.8 mph66%29.90 "Hg9 mi
8:00 AM39 °FSunny.6 mph75%29.90 "Hg9 mi
7:00 AM30 °FPassing clouds.3 mph86%29.88 "Hg9 mi
6:00 AM27 °FOvercast.No wind93%29.87 "Hg9 mi
5:00 AM25 °FPassing clouds.No wind93%29.85 "Hg9 mi
4:00 AM25 °FPassing clouds.No wind100%29.85 "Hg9 mi
3:00 AM25 °FClear.No wind93%29.85 "Hg9 mi
Weather by CustomWeather, © 2015

See weather overviewHow to use our weather pages